Location: Savageville
(44.2117°N, 71.8937°W)
Time: 14:39:58
(UTC+00:00)

ACS3 Solar Sail - Visible Passes

Search period start: 13 October 2024 00:00
Search period end: 23 October 2024 00:00
Orbit: 960 x 1033 km, 97.5° (Epoch: 12 October)

Date Brightness Start Highest point End Pass type
(mag) Time Alt. Az. Time Alt. Az. Time Alt. Az.
13 Oct 3.0 01:31:09 37° WSW 01:32:10 39° W 01:38:03 10° NNW visible
13 Oct 3.6 22:34:25 10° ENE 22:36:35 12° NE 22:38:45 10° NNE visible
14 Oct 1.8 00:17:38 48° SE 00:19:15 64° ENE 00:25:30 10° N visible
14 Oct 3.8 02:02:44 22° W 02:03:34 23° W 02:08:25 10° NW visible
14 Oct 3.1 23:04:05 15° E 23:07:07 20° ENE 23:11:31 10° NNE visible
15 Oct 1.9 00:49:12 62° SSW 00:50:19 78° W 00:56:39 10° NNW visible
15 Oct 4.4 02:34:19 12° W 02:35:09 12° W 02:37:32 10° WNW visible
15 Oct 2.5 23:35:39 27° E 23:37:49 33° ENE 23:43:20 10° N visible
16 Oct 2.7 01:20:46 43° WSW 01:21:30 45° W 01:27:32 10° NNW visible
17 Oct 1.9 00:07:13 46° ESE 00:08:40 56° ENE 00:14:47 10° N visible
17 Oct 3.6 01:52:20 26° W 01:52:50 26° W 01:58:00 10° NW visible
17 Oct 3.2 22:53:39 13° E 22:56:35 18° ENE 23:00:31 10° NNE visible
18 Oct 1.8 00:38:46 69° S 00:39:38 88° WSW 00:45:58 10° NNW visible
18 Oct 4.3 02:23:52 14° W 02:24:20 14° W 02:27:35 10° NW visible
18 Oct 2.7 23:25:12 24° E 23:27:12 29° ENE 23:32:28 10° N visible
19 Oct 2.5 01:10:18 51° WSW 01:10:46 52° W 01:16:54 10° NNW visible
19 Oct 2.0 23:56:43 43° ESE 23:58:00 48° ENE 00:03:58 10° N visible
20 Oct 3.4 01:41:50 30° W 01:42:03 30° W 01:47:28 10° NNW visible
20 Oct 3.3 22:43:08 11° E 22:45:59 15° ENE 22:49:23 10° NNE visible
21 Oct 1.7 00:28:15 72° SE 00:28:55 82° ENE 00:35:12 10° N visible
21 Oct 4.1 02:13:21 17° W 02:13:28 17° W 02:17:21 10° NW visible
21 Oct 2.8 23:14:39 22° E 23:16:33 25° ENE 23:21:29 10° N visible
22 Oct 2.2 00:59:45 59° WSW 00:59:59 60° W 01:06:10 10° NNW visible
22 Oct 2.2 23:46:09 39° E 23:47:15 42° ENE 23:53:03 10° N visible
